Location: Garos
(43.5000°N, 0.4667°W)
Time: 10:50:00
(UTC+00:00)

Daily predictions for brighter satellites

Satellite Brightness Start Highest point End
(mag) Time Altitude Azimuth Time Altitude Azimuth Time Altitude Azimuth
H-2A R/B 4.4 17:39:17 10° SSW 17:43:48 30° W 17:48:28 10° NNW
Cosmos 2266 Rocket 4.1 17:39:44 10° N 17:46:04 88° E 17:52:13 10° S
Cosmos 1328 3.8 17:43:45 10° S 17:47:42 68° E 17:51:38 10° NNE
Cosmos 1844 Rocket 3.4 17:43:33 10° N 17:48:32 32° NE 17:53:29 10° ESE
NOAA 6 4.0 17:46:42 10° SSE 17:51:51 80° ENE 17:57:02 10° NNW
Lacrosse 5 rocket 2.7 17:50:51 10° NNW 17:53:20 17° NNE 17:55:52 10° ENE
DELTA 2 DEB (DPAF) 4.2 17:51:16 10° NNE 17:55:41 84° WNW 18:00:03 10° SSW
CZ-4B R/B 4.1 17:51:32 10° ESE 17:55:48 25° ENE 18:00:09 10° N
Cosmos 2227 4.4 17:57:11 10° NNW 18:02:59 84° WSW 18:08:44 10° SSE
SKYMED 2 3.6 17:59:14 10° NNE 18:03:33 63° E 18:07:51 10° S
Cosmos 1844 4.3 17:59:14 10° NNW 18:04:37 37° NE 18:09:56 10° ESE
CZ-4 R/B 2.9 18:02:01 10° ESE 18:04:40 17° ENE 18:07:19 10° NNE
Cosmos 1892 2.6 18:01:38 10° S 18:05:19 64° E 18:09:02 10° NNE
Cosmos 468 Rocket 4.2 18:02:37 10° N 18:07:36 46° ENE 18:12:31 10° SE
Cosmos 2058 Rocket 4.2 18:04:20 10° NNE 18:07:49 22° ENE 18:11:17 10° SE
Cosmos 2360 Rocket 2.6 18:03:59 10° S 18:09:13 41° ESE 18:14:30 10° NE
Cosmos 2219 Rocket 3.5 18:05:53 10° SE 18:09:35 18° E 18:12:21 13° ENE
CZ-4C R/B 3.1 18:07:16 10° NNE 18:11:03 60° E 18:14:37 10° S
YAOGAN 1 3.3 18:07:31 10° SE 18:11:20 32° ENE 18:15:10 10° N
Cosmos 1825 2.3 18:11:44 10° S 18:15:18 49° E 18:18:53 10° NNE
Cosmos 1954 Rocket 4.0 18:11:12 10° SSW 18:16:27 81° ESE 18:21:42 10° NNE
RESURS DK-1 3.1 18:13:27 10° N 18:17:08 31° NE 18:20:31 12° ESE
Cosmos 2333 Rocket 2.9 18:12:37 10° SSE 18:17:31 32° ESE 18:22:21 11° NE
Cosmos 2322 Rocket 2.1 18:15:45 10° SSW 18:21:20 77° ESE 18:26:57 10° NNE
USA 215 3.6 18:16:53 10° SE 18:23:25 70° SW 18:29:58 10° NW
Cosmos 1763 Rocket 3.4 18:19:44 10° NNW 18:24:56 81° ENE 18:30:02 10° SSE
Meteor 2-12 Rocket 4.4 18:20:48 10° N 18:26:49 60° ENE 18:32:46 10° SSE
BlueWalker 3 3.8 18:28:23 10° NW 18:31:15 19° N 18:33:03 15° NNE
SL-4 R/B 3.3 18:28:50 10° NW 18:31:40 22° N 18:33:04 18° NE
Lacrosse 5 2.1 18:26:35 10° SW 18:31:40 71° NW 18:35:50 16° NE
ATLAS 2AS CENTAUR R/B 2.7 18:25:42 10° NW 18:32:44 89° SW 18:39:19 10° SSE
CZ-4B R/B 4.5 18:29:02 10° SSW 18:32:52 38° W 18:36:32 10° NNW
COSMOS 2428 4.1 18:29:19 10° SE 18:32:20 17° ESE 18:32:20 17° ESE
BREEZE-M DEB (TANK) 4.2 18:30:15 10° WNW 18:34:29 28° SW 18:36:49 10° SSE
Cosmos 2228 4.2 18:30:42 10° NNW 18:34:43 44° W 18:38:42 10° SSW
SL-16 R/B 2.8 18:30:25 10° SW 18:36:00 59° WNW 18:41:37 10° NNE
Cosmos 1606 Rocket 3.6 18:31:50 10° N 18:36:10 81° W 18:40:29 10° S
Cosmos 1741 Rocket 4.5 18:31:18 10° S 18:36:10 39° ESE 18:40:08 15° NE
IRIDIUM 104 4.4 18:31:09 10° N 18:36:16 53° E 18:41:21 10° SSE
In-Cosmos 22 Rocket 4.2 18:30:43 10° S 18:36:31 82° E 18:42:22 10° NNE
Cosmos 841 Rocket 3.9 18:32:32 10° N 18:37:31 41° ENE 18:42:08 12° SE
Nadezhda 2 Rocket 4.4 18:31:31 10° N 18:37:43 78° E 18:43:49 10° SSE
Cosmos 2333 4.5 18:33:21 10° S 18:38:38 45° ESE 18:42:55 16° NE
Cosmos 540 Rocket 3.4 18:33:53 10° NNW 18:39:03 69° ENE 18:44:08 10° SSE
Cosmos 1340 3.0 18:36:05 10° N 18:39:32 38° ENE 18:41:59 17° SE
IRIDIUM 114 4.3 18:40:13 10° N 18:45:25 64° E 18:50:35 10° SSE
Cosmos 1892 Rocket 3.5 18:42:02 10° S 18:46:27 84° E 18:50:51 10° N
MINOTAUR 4 R/B 3.8 18:46:22 20° NNE 18:48:36 66° ESE 18:51:59 10° S
COSMO-SKYMED 1 4.0 18:47:25 10° N 18:51:28 39° WNW 18:55:30 10° SW
Spot 1 4.1 18:51:48 33° NE 18:53:06 45° E 18:57:01 10° S
PAYLOAD B 4.3 18:47:58 10° SSE 18:53:29 79° WSW 18:59:02 10° NNW
IRIDIUM 103 4.2 18:49:22 10° N 18:54:36 78° E 18:59:48 10° S
Genesis I 3.2 18:54:19 10° SW 18:58:16 83° NW 18:59:51 35° NNE
Cosmos 2322 4.1 18:54:00 10° S 18:59:13 39° ESE 19:00:25 35° ENE
ATLAS CENTAUR R/B 4.2 18:57:51 10° WNW 18:59:42 12° NNW 19:01:31 10° N
Meteor 1-27 4.2 18:58:16 10° N 19:04:05 89° WSW 19:09:46 10° S
Cosmos 1869 3.3 19:02:09 10° NNW 19:06:02 76° W 19:09:58 10° S
ISS -1.1 19:06:43 10° W 19:09:08 18° SW 19:11:31 10° S
Cosmos 1633 4.2 19:12:42 10° SW 19:15:43 31° WNW 19:18:45 10° NNW
Okean O Rocket 1.5 19:15:35 10° SSE 19:19:57 85° WSW 19:24:24 10° NNW
Cosmos 1461 4.4 19:16:52 10° WSW 19:20:48 34° NW 19:23:10 20° N
Cosmos 1745 Rocket 3.9 19:17:10 10° N 19:23:27 86° E 19:29:38 10° S
Cosmos 1386 Rocket 4.4 19:20:33 10° N 19:26:35 84° W 19:32:37 10° S
Cosmos 1844 Rocket 3.9 19:27:19 10° NW 19:32:29 40° WSW 19:37:37 10° S
Lacrosse 5 rocket 2.3 19:29:01 10° NW 19:31:18 37° NW 19:31:18 37° NW
CZ-4B R/B 4.1 19:30:55 10° S 19:36:02 48° W 19:41:18 10° NNW
CZ-4 R/B 2.5 19:35:16 10° S 19:39:13 44° W 19:43:08 10° NNW
Cosmos 1709 Rocket 3.8 19:35:48 10° N 19:41:58 77° E 19:43:12 58° SSE
Cosmos 44 Rocket 3.7 19:44:48 10° SW 19:49:10 59° WNW 19:49:10 59° WNW
Cosmos 2219 Rocket 2.4 19:47:24 10° SW 19:52:56 65° WNW 19:54:09 51° N
Cosmos 2360 Rocket 3.8 19:48:18 10° WSW 19:53:18 32° NW 19:57:40 13° N
Cosmos 2333 Rocket 3.3 19:56:21 10° SW 20:01:39 40° WNW 20:04:25 25° N
Atlas Centaur 2 4.0 19:56:40 10° SW 20:03:48 32° S 20:04:15 32° S
Cosmos 2278 Rocket 3.8 19:59:12 10° NNW 20:01:33 24° N 20:01:33 24° N
Cosmos 2322 Rocket 4.5 20:02:03 10° W 20:06:01 19° NW 20:10:01 10° N
Lacrosse 5 3.8 20:11:20 10° WNW 20:15:03 23° NNW 20:15:03 23° NNW
COSMOS 2428 3.7 20:10:50 10° SSW 20:14:26 40° SW 20:14:26 40° SW
